Location: Newark
(41.9364°N, 2.8061°E)
Time: 13:03:56
(UTC+00:00)

Explorer 7 - All Passes

Search period start: 28 February 2020 00:00
Search period end: 09 March 2020 00:00
Orbit: 485 x 679 km, 50.3° (Epoch: 27 February)

Date Brightness Start Highest point End Pass type
(mag) Time Alt. Az. Time Alt. Az. Time Alt. Az.
28 Feb - 08:37:47 10° SSW 08:42:14 37° SE 08:46:35 10° ENE daylight
28 Feb - 10:18:01 10° WSW 10:22:46 56° NNW 10:27:19 10° NE daylight
28 Feb - 11:59:57 10° WNW 12:04:02 29° N 12:07:55 10° NE daylight
28 Feb - 13:41:21 10° NW 13:45:29 34° NNE 13:49:24 10° E daylight
28 Feb - 15:22:01 10° WNW 15:26:22 76° SW 15:30:26 10° SE daylight
28 Feb - 17:04:32 10° WSW 17:06:12 12° SW 17:07:51 10° SSW daylight
29 Feb - 07:06:09 10° SE 07:07:10 11° SE 07:08:10 10° ESE daylight
29 Feb - 08:42:16 10° SW 08:47:03 56° SE 08:51:40 10° ENE daylight
29 Feb - 10:23:12 10° W 10:27:48 43° NNW 10:32:12 10° NE daylight
29 Feb - 12:05:09 10° WNW 12:09:12 28° N 12:13:03 10° ENE daylight
29 Feb - 13:46:16 10° NW 13:50:35 43° NNE 13:54:38 10° E daylight
29 Feb - 15:27:01 10° WNW 15:31:12 47° SW 15:35:08 10° SE daylight
01 Mar - 07:08:33 10° S 07:11:47 18° SE 07:14:59 10° E daylight
01 Mar - 08:47:00 10° SW 08:51:54 83° SE 08:56:39 10° ENE daylight
01 Mar - 10:28:27 10° W 10:32:53 36° NNW 10:37:08 10° NE daylight
01 Mar - 12:10:17 10° NW 12:14:22 29° N 12:18:14 10° ENE daylight
01 Mar - 13:51:09 10° NW 13:55:37 57° NNE 13:59:47 10° ESE daylight
01 Mar - 15:32:11 10° WNW 15:35:58 29° SW 15:39:31 10° SSE daylight
02 Mar - 07:12:19 10° SSW 07:16:28 28° SE 07:20:32 10° ENE daylight
02 Mar - 08:51:57 10° WSW 08:56:50 70° NNW 09:01:33 10° NE daylight
02 Mar - 10:33:43 10° WNW 10:38:01 31° N 10:42:07 10° NE daylight
02 Mar - 12:15:19 10° NW 12:19:31 32° N 12:23:29 10° ENE daylight
02 Mar - 13:56:03 10° WNW 14:00:34 82° NNE 14:04:47 10° ESE daylight
02 Mar - 15:37:39 10° W 15:40:37 18° SW 15:43:28 10° S daylight
03 Mar - 07:16:35 10° SSW 07:21:12 42° SE 07:25:45 10° ENE daylight
03 Mar - 08:57:02 10° W 09:01:49 52° NNW 09:06:26 10° NE daylight
03 Mar - 10:38:58 10° WNW 10:43:10 29° N 10:47:11 10° ENE daylight
03 Mar - 12:20:17 10° NW 12:24:38 37° NNE 12:28:44 10° E daylight
03 Mar - 14:01:00 10° WNW 14:05:28 67° SW 14:09:38 10° SE daylight
03 Mar - 15:44:11 10° WSW 15:45:13 11° SW 15:46:14 10° SW daylight
04 Mar - 05:43:58 10° SSE 05:46:04 13° SE 05:48:12 10° ESE visible
04 Mar - 07:21:09 10° SW 07:26:01 64° SE 07:30:47 10° ENE daylight
04 Mar - 09:02:14 10° W 09:06:52 41° NNW 09:11:20 10° NE daylight
04 Mar - 10:44:09 10° WNW 10:48:19 29° N 10:52:19 10° ENE daylight
04 Mar - 12:25:12 10° NW 12:29:42 47° NNE 12:33:56 10° E daylight
04 Mar - 14:06:02 10° WNW 14:10:16 42° SW 14:14:14 10° SSE daylight
05 Mar - 05:47:06 10° S 05:50:42 21° SE 05:54:17 10° E visible
05 Mar - 07:25:57 10° WSW 07:30:53 88° NW 07:35:44 10° ENE daylight
05 Mar - 09:07:30 10° W 09:11:58 35° NNW 09:16:17 10° NE daylight
05 Mar - 10:49:15 10° NW 10:53:29 30° N 10:57:32 10° ENE daylight
05 Mar - 12:30:05 10° NW 12:34:43 65° NNE 12:39:02 10° ESE daylight
05 Mar - 14:11:15 10° WNW 14:14:59 26° SW 14:18:32 10° S daylight
06 Mar - 05:51:04 10° SSW 05:55:23 32° SE 05:59:42 10° ENE daylight
06 Mar - 07:30:57 10° WSW 07:35:50 64° NNW 07:40:37 10° NE daylight
06 Mar - 09:12:45 10° WNW 09:17:06 31° N 09:21:17 10° NE daylight
06 Mar - 10:54:16 10° NW 10:58:38 34° NNE 11:02:47 10° E daylight
06 Mar - 12:35:00 10° WNW 12:39:39 88° SSW 12:44:00 10° SE daylight
06 Mar - 14:16:50 10° W 14:19:38 16° SW 14:22:19 10° S daylight
07 Mar - 05:55:26 10° SSW 06:00:09 48° SE 06:04:51 10° ENE daylight
07 Mar - 07:36:05 10° W 07:40:51 49° NNW 07:45:32 10° NE daylight
07 Mar - 09:17:59 10° WNW 09:22:15 29° N 09:26:23 10° ENE daylight
07 Mar - 10:59:13 10° NW 11:03:44 41° NNE 11:08:01 10° E daylight
07 Mar - 12:39:58 10° WNW 12:44:30 59° SW 12:48:46 10° SE daylight
08 Mar - 04:22:16 10° SSE 04:24:59 15° SE 04:27:42 10° E visible
08 Mar - 06:00:05 10° SW 06:04:58 73° SE 06:09:51 10° ENE daylight
08 Mar - 07:41:18 10° W 07:45:54 39° NNW 07:50:26 10° NE daylight
08 Mar - 09:23:08 10° WNW 09:27:25 30° N 09:31:33 10° ENE daylight
08 Mar - 11:04:07 10° NW 11:08:47 53° NNE 11:13:10 10° ESE daylight
08 Mar - 12:45:02 10° WNW 12:49:17 37° SW 12:53:17 10° SSE daylight
